GFSMW_700_temp_078.txt.gz
Temp
9 8 8 8 7 7 7 6 5 5 3 3 2 2 2 3 3 2 2 2 2 2 2 2 2 2 2 2 2 1 1 1 1 1 2 1 1 1 1 1 1 1 1
8 8 8 8 7 7 7 7 6 5 4 3 3 3 2 2 3 3 3 3 3 2 2 2 1 1 0 1 2 1 2 1 1 2 1 1 1 1 1 1 1 1 1
9 8 8 8 7 7 7 7 6 6 5 4 3 2 2 2 3 3 3 3 2 2 2 1 1 1 -0 0 1 1 1 2 2 1 1 1 1 -0 -0 1 1 1 1
8 9 8 8 7 7 7 7 6 5 5 4 3 4 3 3 3 2 2 2 2 2 2 1 1 1 -0 -0 0 0 -0 1 1 1 0 -0 -0 -1 -0 -0 0 0 1
9 9 9 8 7 7 7 7 7 6 5 4 4 3 3 3 2 2 2 2 2 2 1 1 1 1 0 -1 -1 -1 -1 -0 0 1 1 0 -0 -1 -1 0 0 -0 0
9 9 9 7 7 7 7 7 7 7 6 5 4 4 3 3 3 2 2 2 2 1 1 1 1 1 1 0 -1 -0 -0 -1 -1 -0 -0 -1 -1 -1 -1 -0 -1 -0 0
9 9 9 8 8 7 7 7 7 7 6 5 5 4 3 3 3 3 3 2 2 1 1 1 0 1 0 0 -0 -0 -2 -2 -1 -1 -1 -1 -2 -1 -1 -1 -1 -1 -1
9 9 9 8 7 7 7 7 7 7 7 6 5 4 3 3 2 3 3 3 2 1 1 1 1 0 0 0 -0 -1 -2 -1 -1 -1 -1 -1 -1 -1 -1 -1 -1 -1 -1
9 9 9 8 7 7 7 7 7 7 7 6 6 5 4 3 3 3 3 3 2 0 1 0 1 1 -0 -1 -1 -1 -1 -1 -2 -2 -1 -1 -1 -1 -1 -1 -1 -1 -1
9 9 8 8 7 7 7 7 7 7 7 6 6 6 5 4 3 3 3 3 2 1 1 1 0 1 0 -0 -2 -2 -2 -2 -1 -1 -1 -1 -1 -1 -1 -1 -1 -1 -1
9 8 8 8 7 7 7 7 7 7 6 6 6 6 6 6 5 4 3 3 2 1 1 1 1 1 1 1 0 -0 -1 -1 -1 -1 -1 -1 -1 -1 -1 -1 -1 -1 -1
8 8 8 7 7 7 7 7 7 7 6 6 6 6 6 6 6 5 5 5 4 3 2 1 1 0 1 0 0 0 -0 -0 -0 -1 -1 -1 -1 -0 -1 -1 -1 -1 -1
7 7 7 7 6 6 7 6 6 6 6 6 6 6 6 6 6 6 5 5 5 4 4 3 3 2 2 1 1 -0 -0 -0 -1 -1 -1 -1 -1 -1 -1 -1 -2 -1 -1
7 7 6 6 6 5 5 6 6 6 6 6 6 6 6 6 6 5 5 5 5 5 5 5 4 4 3 2 2 2 1 1 1 1 0 0 -0 0 -0 -1 -1 -1 -1
6 6 5 5 5 5 5 5 4 4 5 5 5 6 6 5 5 5 5 5 5 5 5 5 4 4 4 4 4 3 3 2 2 2 2 2 2 1 1 0 1 0 -0
5 4 4 5 5 5 5 5 5 5 5 5 5 5 5 5 5 5 5 5 5 5 5 5 5 5 4 4 4 4 3 3 3 3 3 3 2 2 2 2 2 1 1
4 4 4 4 4 4 4 4 5 5 5 5 5 5 5 5 5 5 5 5 5 4 5 5 4 4 4 4 4 3 3 3 3 3 3 3 3 2 2 2 1 1 0
4 4 4 4 4 4 3 3 4 4 5 5 5 5 5 5 5 5 5 5 5 5 4 4 4 4 4 4 3 3 3 3 3 3 3 3 3 2 2 1 1 1 1
2 3 3 3 3 3 3 3 4 4 4 4 4 4 4 4 4 4 4 4 4 4 4 4 4 3 4 3 3 3 3 3 4 3 3 3 3 3 3 2 2 1 1
1 2 2 2 3 2 2 2 3 2 3 3 3 3 4 4 4 4 4 4 3 4 4 3 4 3 3 3 2 3 3 3 3 3 2 2 3 3 3 2 2 1 0
1 2 2 2 2 2 2 2 2 2 2 2 3 3 3 3 3 3 4 3 3 3 3 3 2 1 1 1 1 2 2 2 1 1 1 1 2 2 2 1 -1 -0 0
0 1 1 1 1 1 0 1 1 1 1 1 2 2 2 2 2 2 2 3 3 3 2 2 2 2 2 2 2 2 1 -0 -0 1 1 0 0 1 -0 1 -0 0 0
-1 -0 0 0 0 0 0 0 1 1 1 1 1 1 1 1 1 1 1 1 1 1 1 1 1 0 0 1 1 1 1 1 0 -1 0 0 -0 -0 0 0 0 0 -1
-1 -1 -0 0 0 0 0 -0 0 0 -0 -0 0 0 0 0 0 -0 -0 -0 -0 0 0 -0 -1 -0 0 0 -0 -1 -1 -1 -0 -1 -1 -1 -1 -2 -2 -2 -4 -4 -5
-1 -1 -1 -1 -1 -1 -1 -1 -1 -1 -1 -1 -1 -1 -1 -1 -0 -1 -1 -2 -2 -1 -1 -1 -1 -2 -1 -2 -1 -1 -1 -1 -2 -3 -3 -4 -4 -5 -6 -7 -8 -8 -8
-2 -2 -2 -2 -1 -1 -1 -1 -1 -1 -1 -1 -1 -1 -1 -1 -1 -1 -2 -3 -3 -2 -2 -2 -3 -3 -3 -3 -3 -3 -3 -4 -5 -5 -6 -7 -7 -7 -8 -8 -9 -9 -10

GFSMW_700_temp_084.txt.gz
Temp
7 8 8 8 8 8 8 7 7 6 6 6 5 4 4 3 3 2 1 2 2 2 2 1 1 2 3 3 3 2 2 3 2 2 2 1 1 1 1 1 1 1 1
7 8 8 9 8 8 8 7 7 6 6 6 5 4 4 3 2 2 2 2 1 1 2 2 2 2 2 2 2 2 2 2 2 2 1 1 1 1 1 2 2 1 0
8 8 9 9 8 8 8 7 7 6 6 5 5 4 3 2 2 2 2 1 1 2 1 2 2 2 1 1 1 1 2 2 2 2 1 2 2 1 1 2 2 2 1
8 9 9 9 9 8 8 7 6 6 6 5 4 4 4 3 3 3 2 1 1 1 0 1 2 2 1 0 1 1 1 1 1 2 2 2 1 1 1 1 2 1 1
8 9 9 9 8 8 7 7 6 6 6 5 4 4 4 3 2 2 2 2 1 1 1 1 1 1 -1 -1 -1 -1 -2 -0 1 1 1 1 1 2 1 1 0 -0 -1
8 8 8 8 8 8 7 7 6 6 6 6 4 4 4 3 3 3 1 2 2 2 1 1 1 1 1 0 -1 -3 -3 -1 -0 -0 -0 1 1 1 1 0 -0 -2 -1
8 8 8 8 8 8 8 7 6 7 6 6 5 4 4 3 2 2 2 1 2 1 1 1 1 1 0 1 -0 -1 -3 -3 -3 -2 -1 -0 0 0 -0 -1 -1 -1 -1
8 8 8 9 9 8 8 7 6 7 6 6 5 5 4 3 3 2 2 1 1 1 1 0 1 0 0 -0 0 -1 -2 -3 -3 -3 -2 -1 -1 -0 -1 -1 -2 -1 -1
8 9 9 9 9 8 7 7 6 7 6 6 5 5 4 3 3 2 2 2 1 2 1 1 1 1 0 -0 0 0 -1 -1 -1 -2 -2 -2 -1 -1 -1 -2 -2 -1 -2
8 9 9 10 9 8 7 6 6 7 6 6 5 5 4 3 3 2 2 2 2 2 2 2 1 1 1 1 0 0 0 -0 -0 -0 -1 -1 -0 -1 -2 -2 -2 -2 -1
9 9 9 9 8 7 6 6 6 6 6 6 5 5 5 4 3 2 2 2 2 2 2 1 1 1 1 1 1 0 1 0 0 -0 -0 -0 -1 -1 -1 -1 -1 -1 -1
9 9 9 8 8 7 6 6 6 6 6 6 5 5 5 5 4 3 3 3 2 2 2 1 1 1 1 1 1 1 0 -0 -0 -0 -0 -1 -1 -1 -1 -1 -1 -1 -1
9 9 8 8 7 6 6 5 6 6 6 6 6 5 5 5 4 4 4 3 3 2 2 2 1 0 0 1 0 0 -0 -0 -0 -0 -0 -0 -1 -1 -1 -1 -1 -2 -2
8 8 8 7 6 6 5 5 5 5 6 5 5 5 5 5 4 4 4 4 4 4 3 3 2 1 1 1 0 0 1 1 0 -0 -1 -1 -1 -1 -1 -1 -1 -1 -2
7 8 7 7 6 5 5 5 6 6 6 6 5 5 5 5 5 5 4 4 4 4 3 3 3 3 2 2 2 1 1 1 1 1 1 0 0 0 -0 -1 -2 -2 -1
5 6 7 6 6 5 5 5 5 5 5 5 5 6 5 5 5 5 5 5 5 5 4 4 4 3 3 2 2 1 1 1 1 2 1 1 0 0 -0 -0 -0 -1 -0
3 5 6 6 6 5 4 4 4 4 4 5 5 5 5 5 5 5 5 5 5 5 4 4 4 4 3 3 3 2 2 3 3 3 3 2 2 2 2 1 1 1 1
2 2 4 3 3 3 3 2 3 4 4 4 4 4 4 4 4 4 4 4 4 4 4 3 3 3 3 3 3 3 2 2 2 2 2 2 2 2 2 2 2 2 1
-1 1 2 2 1 2 2 2 3 3 4 4 4 4 4 4 4 4 4 4 4 4 4 3 3 3 2 3 2 2 2 1 1 1 1 0 0 0 0 1 1 0 0
-2 -2 -1 -1 -1 0 2 2 2 3 3 3 3 4 4 3 3 3 4 4 4 4 3 3 3 2 2 2 1 1 1 0 -0 -0 0 0 0 1 0 0 0 0 0
-3 -3 -3 -3 -2 0 1 1 2 2 2 2 2 2 2 2 2 3 2 2 2 3 3 3 3 2 2 2 2 2 1 1 0 -0 0 0 0 -0 -0 -1 -0 -0 -1
-4 -4 -4 -4 -2 -1 0 1 1 1 1 1 1 1 1 1 1 1 1 1 1 1 1 1 1 1 1 1 1 1 1 1 0 0 0 0 0 -0 -0 -1 -1 -1 -2
-5 -4 -4 -4 -4 -2 -1 -1 -0 -0 0 -0 -0 0 0 0 1 1 1 1 1 1 1 1 1 1 1 1 0 0 0 0 -0 -1 -1 -1 -0 -1 -1 -1 -1 -1 -2
-4 -3 -3 -3 -2 -1 -1 -1 -1 -1 -1 -1 -1 -1 -0 -0 -0 0 0 0 0 -0 -0 -0 -0 -0 -0 -1 -1 -1 -1 -2 -2 -2 -2 -2 -2 -2 -2 -2 -3 -4 -4
-3 -3 -3 -3 -2 -2 -2 -2 -1 -1 -1 -1 -1 -1 -1 -1 -1 -1 -0 -0 -1 -1 -1 -1 -1 -1 -1 -1 -2 -2 -2 -3 -3 -3 -3 -4 -4 -4 -4 -5 -6 -7 -7
-4 -4 -3 -3 -3 -3 -3 -3 -3 -2 -2 -2 -2 -2 -2 -2 -2 -2 -2 -2 -2 -2 -3 -3 -3 -3 -3 -3 -4 -4 -4 -4 -4 -5 -5 -6 -6 -6 -7 -8 -8 -9 -10

GFSMW_700_temp_087.txt.gz
Temp
6 6 7 7 8 8 8 8 7 7 6 6 6 6 5 4 4 3 1 1 1 2 2 1 1 1 1 1 2 2 2 3 2 2 2 1 2 1 2 2 2 2 2
6 6 6 7 7 8 8 8 8 7 7 6 5 6 5 4 3 2 2 1 1 1 2 1 1 0 1 1 2 2 3 2 2 2 1 2 2 1 2 2 2 2 2
6 6 7 7 8 8 8 8 7 7 6 6 6 5 4 4 3 2 2 2 1 2 1 1 1 1 1 2 3 3 2 2 2 1 1 1 1 1 2 2 2 1 2
6 7 7 7 8 8 8 8 7 7 6 6 6 5 4 4 3 2 2 2 1 1 2 1 2 2 2 2 2 2 2 1 2 2 2 1 1 1 1 1 1 1 1
6 7 7 8 8 9 8 8 7 7 6 6 6 4 4 4 4 2 2 1 1 1 2 1 1 2 2 2 2 2 1 1 1 1 1 1 1 1 1 1 1 1 1
6 7 8 9 8 9 8 8 7 6 6 6 6 4 4 4 3 2 2 2 1 1 -1 1 2 2 2 2 1 1 0 1 0 0 -1 0 0 1 1 1 1 0 1
6 7 8 8 8 8 8 8 7 6 6 6 6 4 3 3 4 3 2 1 1 1 1 1 1 1 1 1 -0 -0 -0 -1 -2 -2 -1 -0 -0 -1 -0 -0 -0 -0 -0
7 7 8 8 8 8 8 8 7 6 6 6 5 5 3 3 3 2 2 2 1 0 1 1 1 0 1 1 0 1 -1 -3 -1 -3 -2 -2 -2 -2 -2 -1 -1 -2 -1
7 7 8 8 8 8 8 8 7 6 6 6 5 5 4 3 3 3 2 1 1 1 1 0 0 0 0 0 1 0 0 -0 -1 -1 -3 -3 -3 -3 -3 -2 -2 -1 -1
7 8 8 8 8 8 8 8 6 6 6 6 5 5 4 3 2 2 2 1 2 2 1 1 1 1 0 0 0 0 0 -0 -0 -0 -1 -2 -2 -2 -3 -3 -1 -1 -1
7 8 8 9 8 8 8 7 6 6 6 5 5 5 4 4 3 2 2 2 1 1 1 1 2 2 1 1 1 1 0 0 0 -0 -1 -1 -1 -1 -1 -1 -2 -2 -2
7 8 8 8 9 8 7 7 6 6 5 5 5 5 5 4 3 2 2 2 2 2 2 2 1 2 1 1 1 1 1 0 -0 -0 -0 -1 -1 -1 -1 -1 -1 -1 -1
7 8 8 8 8 8 7 6 5 6 5 5 5 5 5 4 4 3 2 2 2 2 2 2 1 1 1 1 1 1 0 0 -0 -1 -0 -0 -0 -1 -0 -1 -1 -1 -1
6 7 7 7 7 7 6 6 5 5 5 5 5 5 5 5 4 3 3 3 3 2 2 2 1 1 1 1 1 1 0 -0 0 -0 -0 -0 -0 -0 -0 -1 -1 -1 -1
2 3 7 7 7 6 6 5 5 5 5 5 5 5 5 5 5 4 4 4 3 3 3 2 2 2 1 1 1 1 1 1 0 0 1 1 0 0 -0 -0 0 -0 -1
1 1 4 6 6 6 6 5 5 5 5 5 5 5 5 5 5 5 5 5 4 4 4 4 4 3 2 2 2 2 2 2 2 2 2 1 1 1 1 0 -0 -1 -0
2 2 2 4 5 5 5 5 4 5 5 5 5 5 5 5 5 5 5 5 5 5 4 4 4 4 4 4 4 3 3 3 3 3 2 2 2 1 1 1 0 0 0
1 2 1 2 4 5 4 4 3 3 3 3 4 4 4 5 4 4 4 4 4 4 4 4 3 3 4 4 3 3 3 3 2 2 2 1 1 1 1 0 0 0 1
0 1 2 2 2 3 2 1 1 1 2 2 3 4 4 4 4 4 4 4 4 4 4 4 4 3 3 3 3 3 2 1 1 0 0 0 0 0 0 1 0 -0 -0
-3 -1 0 1 2 2 1 1 0 1 1 1 3 3 4 4 3 3 3 3 3 3 3 3 3 3 3 3 3 3 2 1 0 1 1 0 0 -0 -0 0 -0 -0 -1
-2 -4 -2 -2 -1 -0 -0 0 -0 -0 -0 -0 1 2 3 3 3 3 3 3 2 2 2 2 2 2 2 2 2 2 2 2 1 1 0 0 -0 -0 0 -0 -0 -1 -1
-4 -3 -4 -4 -4 -3 -3 -3 -3 -1 -1 -1 0 1 1 1 1 1 1 2 2 1 1 1 1 1 2 2 1 1 1 1 1 1 1 0 0 -1 -1 -1 -1 -1 -1
-5 -5 -4 -4 -4 -4 -4 -4 -4 -3 -2 -1 -1 -1 -0 -1 -1 -0 -0 -0 -0 -0 -0 -0 0 0 0 0 0 0 0 0 -0 -0 -1 -1 -1 -1 -2 -2 -2 -2 -2
-6 -5 -5 -5 -5 -5 -5 -5 -4 -3 -2 -2 -2 -1 -1 -1 -1 -0 -0 -0 -0 -0 -0 -0 -1 -0 -0 -0 -0 -0 -1 -1 -2 -2 -2 -2 -2 -3 -3 -3 -3 -4 -4
-6 -5 -4 -4 -4 -4 -4 -4 -4 -3 -2 -2 -2 -2 -2 -1 -1 -1 -1 -1 -1 -1 -1 -1 -1 -1 -2 -2 -2 -2 -2 -3 -3 -3 -4 -4 -4 -4 -5 -5 -6 -6 -7
-7 -6 -6 -5 -4 -4 -3 -3 -3 -3 -3 -3 -3 -2 -2 -2 -2 -2 -2 -2 -2 -2 -2 -3 -3 -3 -3 -3 -3 -4 -4 -4 -5 -5 -5 -6 -6 -6 -7 -7 -8 -8 -9

GFSMW_700_temp_093.txt.gz
Temp
7 7 6 6 6 6 6 7 8 8 8 8 8 7 7 7 6 6 5 6 5 4 4 3 2 3 2 2 2 2 2 1 -0 -0 0 -0 1 2 3 3 3 4 3
7 7 7 6 6 5 5 7 7 7 8 8 8 7 7 6 6 5 5 5 5 4 4 3 3 2 2 2 2 2 1 1 0 1 1 1 1 1 2 3 3 3 3
6 6 6 6 5 5 5 6 7 7 8 8 7 7 7 7 6 5 5 5 4 4 4 3 3 2 2 2 2 2 1 1 1 1 2 2 1 2 2 2 3 3 3
5 5 6 6 5 5 5 6 6 7 7 8 7 8 7 7 6 5 5 5 4 3 3 3 2 2 2 2 1 1 1 1 0 1 1 1 1 2 2 2 2 2 3
4 4 5 5 5 5 4 6 6 6 7 7 8 7 7 6 6 5 5 4 4 3 3 2 2 1 1 2 1 2 1 1 0 1 1 1 1 0 1 2 2 2 2
3 4 4 5 5 5 4 6 6 7 7 8 7 7 7 6 6 6 5 4 4 3 2 2 1 1 1 1 2 2 1 0 0 1 1 1 1 0 -0 -0 -0 0 1
3 3 4 5 5 5 5 7 7 7 7 8 7 7 6 6 6 5 4 4 4 3 2 2 2 1 1 1 1 1 1 -0 0 1 1 1 1 -1 -1 -1 -0 -1 -1
2 3 3 3 4 4 7 7 7 7 7 7 7 7 6 6 6 5 4 4 3 2 2 1 1 1 1 1 1 1 0 0 1 1 1 0 -0 -0 -1 -2 -1 -1 -1
4 3 5 5 6 7 7 7 7 8 8 7 7 6 6 6 6 5 4 3 3 2 2 2 1 1 1 1 1 1 0 1 1 1 0 -0 -1 -1 -2 -1 -0 -1 -2
4 6 5 3 5 7 8 8 8 8 7 7 6 6 6 6 5 5 4 3 2 2 2 2 1 1 1 2 0 1 1 1 1 1 0 -0 -0 -0 -1 -1 -0 -1 -1
4 5 6 4 4 7 7 7 7 8 7 7 6 6 7 6 5 5 4 3 3 2 1 1 1 1 1 0 1 1 0 0 1 1 -1 0 0 -0 -1 -1 -1 -1 -0
4 4 5 5 6 7 6 7 7 8 7 6 6 6 6 6 5 4 3 3 2 1 0 0 1 0 0 -0 -0 0 1 1 0 0 0 0 0 0 -1 0 -0 -0 0
2 4 4 5 6 6 6 6 7 7 6 6 6 6 6 6 5 4 3 3 2 2 1 0 0 1 0 -0 -0 -0 0 0 0 0 1 0 0 -0 -0 0 1 0 -0
1 1 2 3 5 7 6 6 6 6 6 5 6 6 6 6 5 4 3 3 3 3 1 1 2 1 1 1 1 1 1 0 1 1 1 0 -0 0 0 -0 -0 -0 -1
0 1 2 2 4 5 6 6 6 5 5 5 5 5 5 5 5 5 3 3 2 2 2 1 1 2 1 1 1 1 1 1 1 1 1 1 1 1 1 0 -0 -0 -1
-1 -0 0 2 2 3 4 6 5 5 4 5 5 5 5 5 5 5 4 3 2 2 2 2 1 1 2 2 2 2 1 1 1 1 1 1 0 0 -0 -0 -0 -0 -1
-1 -0 -0 0 2 1 1 2 4 5 4 5 5 5 5 5 5 5 5 4 3 3 3 3 3 4 4 3 3 2 1 0 1 1 1 0 0 1 0 -0 -0 -0 -0
-2 -1 -1 -0 1 1 2 2 3 2 4 4 4 5 5 5 5 5 4 4 4 4 3 3 4 4 3 3 3 2 2 2 2 2 2 2 1 1 0 0 0 0 -0
-3 -1 -1 -1 -1 1 1 2 2 2 2 3 3 3 4 4 4 4 4 4 3 3 3 3 3 3 3 2 2 2 2 1 1 1 1 2 1 1 1 0 1 0 -0
-3 -2 -2 -2 -1 -0 2 2 2 2 2 2 2 2 2 3 3 3 3 3 2 2 2 2 2 2 2 2 1 0 1 1 1 1 1 1 1 1 0 0 0 1 -0
-4 -4 -4 -4 -4 -2 -1 1 -0 1 1 1 1 1 1 2 2 2 2 2 2 2 2 2 2 2 2 2 1 1 1 1 0 0 -0 -0 -0 1 1 -0 0 0 0
-5 -5 -5 -4 -5 -5 -4 -2 -2 -0 -0 1 1 1 1 1 1 1 1 1 1 1 1 1 0 1 1 -0 -0 -0 -0 -0 -0 -0 0 0 -0 -0 0 -0 -0 -0 -0
-6 -6 -5 -5 -4 -4 -4 -4 -4 -4 -4 -3 -4 -2 -1 -0 -1 -1 -1 0 -2 -0 -0 -1 -1 -1 -1 -1 -1 -1 -1 -1 -1 -1 -0 -0 -0 -0 -0 -0 -0 -1 -1
-6 -6 -6 -6 -6 -6 -5 -5 -4 -5 -5 -5 -4 -4 -4 -4 -4 -3 -3 -3 -3 -3 -3 -3 -3 -3 -2 -2 -2 -1 -1 -1 -1 -1 -1 -1 -2 -2 -2 -2 -2 -3 -3
-6 -6 -6 -6 -6 -6 -6 -6 -6 -6 -6 -6 -6 -5 -5 -6 -6 -6 -5 -5 -5 -4 -3 -3 -3 -3 -3 -3 -3 -3 -3 -3 -3 -3 -3 -3 -3 -3 -4 -4 -4 -4 -5
-7 -7 -7 -7 -7 -7 -7 -7 -7 -6 -6 -6 -7 -7 -7 -7 -6 -6 -5 -5 -5 -4 -4 -4 -4 -4 -4 -4 -4 -4 -4 -4 -5 -5 -5 -5 -5 -5 -5 -6 -6 -6 -7